Location: 22
(39.7117°N, 89.5929°W)
Time: 09:46:17
(UTC-05:00)

S-56A Canister/Altair - Pass Details

Date: 15 February 2023
Orbit: 638 x 2493 km, 38.9° (Epoch: 25 March)

Event Time Altitude Azimuth Distance (km) Brightness Sun altitude
Rises 11:15:52 0° 279° (W) 2,971 10.3 36.1°
Reaches altitude 10° 11:18:13 10° 273° (W) 2,023 9.6 36.2°
Maximum altitude 11:22:29 47° 199° (SSW) 868 9.2 36.4°
Drops below altitude 10° 11:27:16 10° 126° (SE) 2,258 10.7 36.7°
Sets 11:30:02 0° 121° (ESE) 3,363 11.3 36.8°
